This demonstration page uses our WeatherBlox Daily Observations layout. Learn more.

Left ArrowRight Arrow

Hourly Observations for September 30, 2022

Temp ( °F °C ) Dew Point ( °F °C ) Humidity (%) Winds ( mph kmh ) Pressure ( in mb ) Visibility ( mi km ) Precip ( " mm )
12:15 am 00:15 Clear 43 6 43 6 100 100 Calm 30.36 1028 10 16 0.00 0.00
12:35 am 00:35 Clear 41 5 41 5 100 100 Calm 30.36 1028 10 16 0.00 0.00
12:55 am 00:55 Clear 43 6 43 6 100 100 Calm 30.36 1028 10 16 0.00 0.00
1:15 am 01:15 Clear 41 5 41 5 100 100 Calm 30.36 1028 10 16 0.00 0.00
1:35 am 01:35 Clear 41 5 41 5 100 100 Calm 30.35 1028 10 16 0.00 0.00
1:55 am 01:55 Clear 41 5 41 5 100 100 Calm 30.35 1028 10 16 0.00 0.00
2:15 am 02:15 Clear 41 5 41 5 100 100 Calm 30.34 1027 10 16 0.00 0.00
2:35 am 02:35 Clear 39 4 39 4 100 100 Calm 30.34 1027 10 16 0.00 0.00
2:55 am 02:55 Clear 39 4 39 4 100 100 ENE 3 6 30.33 1027 10 16 0.00 0.00
3:15 am 03:15 Clear 39 4 39 4 100 100 Calm 30.33 1027 10 16 0.00 0.00
3:35 am 03:35 Clear 39 4 39 4 100 100 N 3 6 30.33 1027 10 16 0.00 0.00
3:55 am 03:55 Clear 39 4 39 4 100 100 N 3 6 30.33 1027 7 11 0.00 0.00
4:15 am 04:15 Clear 37 3 37 3 100 100 N 3 6 30.34 1027 10 16 0.00 0.00
4:35 am 04:35 Clear 37 3 37 3 100 100 NNE 5 7 30.32 1027 7 11 0.00 0.00
4:55 am 04:55 Clear 37 3 37 3 100 100 NE 3 6 30.32 1027 5 8 0.00 0.00
5:15 am 05:15 Clear 37 3 37 3 100 100 NNE 3 6 30.32 1027 10 16 0.00 0.00
5:35 am 05:35 Clear 36 2 36 2 100 100 Calm 30.33 1027 7 11 0.00 0.00
5:55 am 05:55 Clear 36 2 36 2 100 100 Calm 30.33 1027 2 3 0.00 0.00
6:15 am 06:15 Clear 36 2 36 2 100 100 Calm 30.34 1027 7 11 0.00 0.00
6:35 am 06:35 Clear 37 3 37 3 100 100 N 3 6 30.34 1027 5 8 0.00 0.00
6:55 am 06:55 Clear 36 2 36 2 100 100 Calm 30.34 1027 7 11 0.00 0.00
7:15 am 07:15 Mostly Clear 36 2 36 2 100 100 NNE 3 6 30.34 1027 1 1 0.00 0.00
7:35 am 07:35 Clear 34 1 34 1 100 100 Calm 30.34 1028 2 3 0.00 0.00
7:55 am 07:55 Mostly Sunny 34 1 34 1 100 100 NNE 3 6 30.34 1028 1 1 0.00 0.00
8:15 am 08:15 Sunny 37 3 37 3 100 100 NNE 3 6 30.34 1027 5 8 0.00 0.00
8:35 am 08:35 Sunny 39 4 39 4 100 100 NNE 5 7 30.34 1027 10 16 0.00 0.00
8:55 am 08:55 Sunny 43 6 43 6 100 100 NNE 5 7 30.33 1027 10 16 0.00 0.00
9:15 am 09:15 Sunny 46 8 46 8 100 100 NE 6 9 30.33 1027 10 16 0.00 0.00
9:35 am 09:35 Sunny 48 9 46 8 93 93 NE 6 9 30.32 1027 10 16 0.00 0.00
9:55 am 09:55 Sunny 50 10 46 8 87 87 ENE 9 15 30.32 1027 10 16 0.00 0.00
10:15 am 10:15 Sunny 52 11 48 9 87 87 NE 8 13 30.31 1026 10 16 0.00 0.00
10:35 am 10:35 Sunny 54 12 46 8 76 76 NE 7 11 30.29 1026 10 16 0.00 0.00
10:55 am 10:55 Sunny 55 13 46 8 72 72 NE 7 11 30.29 1026 10 16 0.00 0.00
11:15 am 11:15 Sunny 57 14 46 8 67 67 NE 9 15 30.29 1026 10 16 0.00 0.00
11:35 am 11:35 Sunny 59 15 46 8 63 63 NNE 9 15 30.27 1025 10 16 0.00 0.00
11:55 am 11:55 Sunny 59 15 46 8 63 63 NNE 7 11 30.26 1025 10 16 0.00 0.00
12:15 pm 12:15 Sunny 61 16 46 8 59 59 NNE 12 19 30.26 1025 10 16 0.00 0.00
12:36 pm 12:36 Sunny 63 17 46 8 55 55 NE 8 13 30.25 1024 10 16 0.00 0.00
12:55 pm 12:55 Sunny 63 17 46 8 55 55 NE 7 11 30.24 1024 10 16 0.00 0.00
1:15 pm 13:15 Sunny 64 18 46 8 52 52 NE 6 9 30.24 1024 10 16 0.00 0.00
1:35 pm 13:35 Sunny 64 18 46 8 52 52 ENE 10 17 30.24 1024 10 16 0.00 0.00
1:55 pm 13:55 Sunny 64 18 46 8 52 52 NE 7 11 30.22 1023 10 16 0.00 0.00
2:15 pm 14:15 Sunny 66 19 46 8 49 49 ENE 8 13 30.20 1023 10 16 0.00 0.00
2:35 pm 14:35 Sunny 66 19 46 8 49 49 NNE 6 9 30.19 1022 10 16 0.00 0.00
2:55 pm 14:55 Sunny 66 19 46 8 49 49 NNE 7 11 30.18 1022 10 16 0.00 0.00
3:15 pm 15:15 Sunny 68 20 46 8 46 46 NNE 12 19 30.17 1022 10 16 0.00 0.00
3:35 pm 15:35 Sunny 68 20 45 7 43 43 N 8 13 30.16 1021 10 16 0.00 0.00
3:55 pm 15:55 Sunny 68 20 45 7 43 43 NNE 10 17 30.15 1021 10 16 0.00 0.00
4:15 pm 16:15 Sunny 70 21 46 8 43 43 NNE 9 15 30.13 1020 10 16 0.00 0.00
4:35 pm 16:35 Sunny 70 21 45 7 40 40 N 10 17 30.13 1020 10 16 0.00 0.00
4:55 pm 16:55 Sunny 68 20 45 7 43 43 NNE 9 15 30.12 1020 10 16 0.00 0.00
5:15 pm 17:15 Sunny 68 20 43 6 40 40 NNE 13 20 30.12 1020 10 16 0.00 0.00
5:35 pm 17:35 Sunny 68 20 43 6 40 40 NNE 10 17 30.10 1019 10 16 0.00 0.00
5:55 pm 17:55 Sunny 68 20 43 6 40 40 NNE 12 19 30.10 1019 10 16 0.00 0.00
6:15 pm 18:15 Sunny 66 19 43 6 43 43 NNE 10 17 30.10 1019 10 16 0.00 0.00
6:35 pm 18:35 Sunny 64 18 43 6 45 45 NNE 10 17 30.11 1019 10 16 0.00 0.00
6:55 pm 18:55 Sunny 63 17 43 6 48 48 NE 8 13 30.11 1020 10 16 0.00 0.00
7:15 pm 19:15 Sunny 61 16 43 6 51 51 NNE 7 11 30.11 1020 10 16 0.00 0.00
7:35 pm 19:35 Clear 55 13 43 6 62 62 NE 6 9 30.13 1020 10 16 0.00 0.00
7:55 pm 19:55 Clear 54 12 43 6 67 67 NNE 5 7 30.13 1020 10 16 0.00 0.00
8:15 pm 20:15 Clear 50 10 43 6 76 76 NNE 6 9 30.14 1021 10 16 0.00 0.00
8:35 pm 20:35 Clear 52 11 43 6 71 71 NNE 6 9 30.14 1021 10 16 0.00 0.00
8:55 pm 20:55 Clear 50 10 43 6 76 76 N 6 9 30.13 1020 10 16 0.00 0.00
9:15 pm 21:15 Clear 50 10 43 6 76 76 N 6 9 30.13 1020 10 16 0.00 0.00
9:35 pm 21:35 Clear 46 8 43 6 87 87 NNE 5 7 30.14 1021 10 16 0.00 0.00
9:55 pm 21:55 Clear 48 9 43 6 81 81 N 5 7 30.14 1020 10 16 0.00 0.00
10:15 pm 22:15 Clear 46 8 43 6 87 87 N 5 7 30.14 1021 10 16 0.00 0.00
10:35 pm 22:35 Clear 45 7 41 5 87 87 N 6 9 30.14 1021 10 16 0.00 0.00
10:55 pm 22:55 Clear 46 8 43 6 87 87 NNE 6 9 30.14 1021 10 16 0.00 0.00
11:15 pm 23:15 Clear 48 9 43 6 81 81 NNE 8 13 30.12 1020 10 16 0.00 0.00
11:35 pm 23:35 Clear 48 9 43 6 81 81 NE 7 11 30.12 1020 10 16 0.00 0.00
11:55 pm 23:55 Clear 48 9 43 6 81 81 NE 6 9 30.12 1020 10 16 0.00 0.00

Powered by AerisWeather